Location: St. Louis
(38.6270°N, 90.1994°W)
Time: 22:47:18
(UTC-06:00)

DELFI C3 - Visible Passes

Search period start: 26 January 2022 00:00
Search period end: 05 February 2022 00:00
Orbit: 525 x 543 km, 97.4° (Epoch: 26 January)

Date Brightness Start Highest point End Pass type
(mag) Time Alt. Az. Time Alt. Az. Time Alt. Az.
26 Jan ? 17:55:46 10° E 17:57:31 13° ENE 17:59:15 10° NE visible
26 Jan ? 19:27:55 10° S 19:31:34 41° W 19:35:13 10° NNW visible
27 Jan ? 19:18:44 10° S 19:22:30 55° W 19:26:17 10° NNW visible
28 Jan ? 19:09:37 10° S 19:13:27 73° WSW 19:17:17 10° NNW visible
29 Jan ? 19:00:34 10° SSE 19:04:23 85° ENE 19:08:14 10° N visible
30 Jan ? 06:38:49 10° E 06:39:32 10° E 06:40:15 10° ESE visible
30 Jan ? 18:51:33 10° SSE 18:55:20 64° ENE 18:59:08 10° N visible
31 Jan ? 18:42:35 10° SSE 18:46:17 48° ENE 18:49:58 10° N visible
31 Jan ? 20:20:32 10° W 20:20:59 10° W 20:21:25 10° W visible
01 Feb ? 18:33:42 10° SE 18:37:13 37° ENE 18:40:46 10° N visible
01 Feb ? 20:09:54 10° WSW 20:11:48 13° W 20:13:42 10° WNW visible
02 Feb ? 18:24:52 10° SE 18:28:11 29° ENE 18:31:30 10° NNE visible
02 Feb ? 20:00:05 10° SW 20:02:39 17° W 20:05:12 10° NW visible
03 Feb ? 18:16:06 10° ESE 18:19:08 23° ENE 18:22:10 10° NNE visible
03 Feb ? 19:50:28 10° SSW 19:53:28 22° W 19:56:29 10° NW visible
04 Feb ? 18:07:27 10° ESE 18:10:05 18° ENE 18:12:43 10° NNE visible
04 Feb ? 19:41:00 10° SSW 19:44:18 28° W 19:47:38 10° NW visible
